Regional Weather Roundup
Issued by NWS Sterling, VA

Home | Current Version | Previous Version | Text Only | Print | Product List | Glossary Off
Versions: 1 2 3 4 5 6 7 8 9 10 11 12 13 14 15 16 17 18 19 20 21 22 23 24 25 26 27 28 29 30 31 32 33 34 35 36 37 38 39 40 41 42 43 44 45 46 47 48 49 50

000
ASUS41 KLWX 220111
RWRLWX

REGIONAL WEATHER ROUNDUP
NATIONAL WEATHER SERVICE BALTIMORE MD/WASHINGTON DC
800 PM EST TUE NOV 21 2017

Note: "FAIR" indicates few or no clouds below 12,000 feet
with no significant weather and/or obstructions to visibility.
 TC=TEMPERATURE CELSIUS

 * =Non NWS site. Station does not report precipitation (e.g. rain,
    snow, etc.), thunder, or fog.

DCZ001-MDZ009-015-VAZ040>042-051-053>054-220200-
WASHINGTON METRO

CITY           SKY/WX    TMP DP  RH WIND       PRES   REMARKS
WASHINGTON NAT MOCLDY    54  44  69 S12       30.06R
DULLES         CLOUDY    53  42  66 S9        30.05R
ANDREWS AFB    PTCLDY    53  41  64 S9        30.05R
FT BELVOIR     CLOUDY    55  42  63 S3        30.06R
QUANTICO       MOCLDY    53  46  77 CALM      30.08R
COLLEGE PARK*  CLOUDY    55  40  58 CALM      30.05R
LEESBURG*      CLOUDY    55  43  62 S9        30.04R
MANASSAS*      CLOUDY    53  41  63 S5        30.06R
GAITHERSBURG*  CLOUDY    55  41  59 S10       30.04R

$$

MDZ006>007-011-014-220200-
BALTIMORE METRO

CITY           SKY/WX    TMP DP  RH WIND       PRES   REMARKS
BWI AIRPORT    CLOUDY    55  42  61 S7        30.04R
MD SCIENCE CTR   N/A     57  41  55 MISG      30.04R
MARTIN STATE   CLEAR     54  48  82 S8        30.06S
ANNAPOLIS      CLOUDY    55  51  86 S12       30.06R
FORT MEADE*    CLOUDY    46  39  76 CALM      30.07R

$$

MDZ012-015-019>023-220200-
MARYLAND EASTERN SHORE

CITY           SKY/WX    TMP DP  RH WIND       PRES   REMARKS
OCEAN CITY     PTCLDY    57  51  80 SW9       30.11S
SALISBURY      CLOUDY    56  48  74 S8        30.09S
CAMBRIDGE*     CLEAR     55  48  76 S15       30.08R
EASTON*        CLEAR     55  45  67 S9        30.11R

$$

MDZ017>025-220200-
SOUTHERN MARYLAND

CITY           SKY/WX    TMP DP  RH WIND       PRES   REMARKS
PATUXENT RIVER CLOUDY    57  45  64 S12       30.07R
ST INIGOES     CLOUDY    56  47  71 S7        30.07S
LEONARDTOWN*   MOCLDY    55  43  62 S5        30.09R

$$

MDZ003>005-220200-
NORTH CENTRAL MARYLAND

CITY           SKY/WX    TMP DP  RH WIND       PRES   REMARKS
FREDERICK*     CLEAR     55  39  54 SW12      30.04S
HAGERSTOWN APT CLEAR     49  36  61 S5        29.98S
WESTMINSTER*   CLOUDY    52  43  71 S7        30.01S

$$

MDZ501>502-220200-
WESTERN MARYLAND

CITY           SKY/WX    TMP DP  RH WIND       PRES   REMARKS
OAKLAND*       CLEAR     41  28  60 S7        29.94S
CUMBERLAND*    CLEAR     43  30  61 N3        30.00S

$$

VAZ025>031-220200-
SHENANDOAH VALLEY

CITY           SKY/WX    TMP DP  RH WIND       PRES   REMARKS
WINCHESTER*    CLOUDY    46  36  66 S5        30.00R
FRONT ROYAL*   CLOUDY    54  39  58 CALM      30.00R
LURAY*         CLOUDY    52  43  71 SW9       30.01S
NEW MARKET*    CLOUDY    51  41  67 SW7       30.00S
STAUNTON*      CLOUDY    50  41  70 S8        30.05S
WAYNESBORO*    MOCLDY    53  44  70 S9        30.03S

$$

WVZ021-048>050-054>055-220200-
EASTERN WEST VIRGINIA PANHANDLE

CITY           SKY/WX    TMP DP  RH WIND       PRES   REMARKS
MARTINSBURG    CLEAR     47  34  60 SW3       29.98S
PETERSBURG*    CLEAR     53  37  54 S9        29.98S

$$

VAZ036>039-050-220200-
CENTRAL FOOTHILLS

CITY           SKY/WX    TMP DP  RH WIND       PRES   REMARKS
CHARLOTTESVILL CLOUDY    54  39  57 S12       30.05R
CULPEPER*      CLOUDY    51  39  62 CALM      30.06S
ORANGE*        CLOUDY    52  37  58 CALM      30.06R
GORDONSVILLE*  CLOUDY    46  39  79 SW6       30.05S
WARRENTON*     NOT AVBL

$$

VAZ055>057-220200-
NORTH AND CENTRAL PIEDMONT

CITY           SKY/WX    TMP DP  RH WIND       PRES   REMARKS
FREDERICKSBRG* CLOUDY    49  43  80 S6        30.06S
STAFFORD*      CLOUDY    51  42  71 CALM      30.10R

$$

NCZ024-NYZ072-PAZ021-071-VAZ022-071-220200-
OTHER REGIONAL OBSERVATIONS

CITY           SKY/WX    TMP DP  RH WIND       PRES   REMARKS
NEW YORK CITY  CLEAR     54  37  52 W10G21    30.07R
PHILADELPHIA   MOCLDY    54  40  59 SW8       30.04F
PITTSBURGH     CLOUDY    47  30  51 S5        29.92S
ROANOKE        PTCLDY    53  43  68 E3        30.07S
RICHMOND       CLOUDY    52  44  74 S6        30.08S
RALEIGH        CLOUDY    57  47  69 S5        30.09F

$$

ANZ530>537-220200-
MARINE OBSERVATIONS

STATION/POSITION TIME  TEMP    WIND        PRES
                       AIR SEA DIR/SP/G
                 (UTC) (F)     (DEG/KT/KT) (MB)
THOMAS PT LIGHT  0100   55 53  180/ 16/ 18   N/A
BALT KEY BRIDGE  0042   54     160/  8/  9 1017.2R
COVE POINT       0042   56     200/ 10/ 13 1019.0R
LEWISETTA        0042   57 50  200/  9/ 10 1018.5R
SOLOMONS ISLAND  0042   56 54  190/  6/  9 1018.0R
PINEY POINT      0036          190/ 10/ 10   N/A

$$




USA.gov is the U.S. government's official web portal to all federal, state and local government web resources and services.